Погода в Коноше

Россия / Архангельская область     60°58′24″N   40°15′23″E
темп.,
°C
ветер,
м/с
пор.,
м/с
влажн.,
%
обл.,
%
осадки,
мм/ч
давл.,
гПа
погр.,
м
18 апреля, вс
вс1800:00+3ссв22835 0.0 103017
03:00+1св239141 0.0 103147
06:00+1св299278 0.0 1031257
09:00+4всв467876 0.0 1032729
12:00+4св466561 0.0 10331014
15:00+7всв453511 0.0 10321351
18:00+5всв36445 0.0 1032947
21:000всв29681 0.0 1034191
19 апреля, пн
пн1900:00−1в28753 0.0 1035187
03:00−2в27792 0.0 1036170
06:00−1в27740 0.0 1036264
09:00+4в35485 0.0 10361071
12:00+6вюв353611 0.0 10351448
15:00+8вюв343470 0.0 10341613
18:00+6в2449100 0.0 1033153
21:00+2вюв256795 0.0 1034104
20 апреля, вт
вт2000:000юв25744 0.0 1034101
03:00−1юв24780 0.0 103474
06:000юв26740 0.0 1034176
09:00+5юв35460 0.0 1033932
12:00+8юв35350 0.0 10311359
15:00+9юв46320 0.0 10291548
18:00+8юв37395 0.0 10271244
21:00+3вюв2106499 0.0 1027199
21 апреля, ср
ср2100:00+2вюв3116556 0.0 1025289
03:00+1вюв31271100 0.0 1024335
06:00+1вюв41567100 0.0 1020598
09:00+5вюв61547100 0.0 1016939
12:00+4юв61461100 0.3 10131123
15:00+3юв61489100 1.4 10111046
18:00+2юв51496100 0.3 1009941
21:00+2юв51496100 0.8 1007850
22 апреля, чт
чт2200:00+2юв51496100 1.0 1006917
03:00+2юв51296100 1.2 10051078
06:00+2ююв51396100 1.0 10041207
09:00+1ю51296100 2.2 1006884
12:00+2ююз51296100 0.4 1010696
15:00+2ююз51194100 0.6 1013907
18:00+4ююз498136 0.0 10151002
21:00+2ююз3109294 0.0 1017350